Location: Goll?ig?dem
(16.6773°N, 80.7332°E)
Time: 06:36:34
(UTC+00:00)

Cosmos 2219 - Pass Details

Date: 21 April 2021
Orbit: 834 x 859 km, 71.1° (Epoch: 06 May)

Event Time Altitude Azimuth Distance (km) Brightness Sun altitude
Rises 14:05:19 0° 184° (S) 3,376 6.2 -17.3°
Reaches altitude 10° 14:07:49 10° 179° (S) 2,440 5.4 -17.8°
Maximum altitude 14:13:12 50° 104° (ESE) 1,054 3.3 -19.1°
Drops below altitude 10° 14:18:35 10° 30° (NNE) 2,439 5.5 -20.3°
Sets 14:21:04 0° 26° (NNE) 3,373 6.3 -20.8°
